Weather History for McConnell AFB, KS

Change the Weather History Date:

Wednesday, December 5, 2012

  Actual Average Record
Temperature  
Mean Temperature 49 °F -  
Max Temperature 60 °F 46 °F 69 °F (2001)
Min Temperature 38 °F 29 °F 15 °F (2005)
Degree Days  
Heating Degree Days 16    
Moisture  
Dew Point 22 °F    
Average Humidity 39    
Maximum Humidity 55    
Minimum Humidity 17    
Precipitation  
Precipitation 0.00 in - - ()
Sea Level Pressure  
Sea Level Pressure 30.18 in    
Wind  
Wind Speed 8 mph (SSE)    
Max Wind Speed 18 mph    
Max Gust Speed -    
Visibility 10 miles    
Events      
Averages and records for this station are not official NWS values.
T = Trace of Precipitation, MM = Missing Value Source: NWS Daily Summary

Daily Weather History Graph

Daily Weather History Graph

Search for Another Location

Airport:

Trip Planner

Search our weather history database for the weather conditions in past years. The results will help you decide how hot, cold, wet, or windy it might be!

Date:

Astronomy

Dec. 05, 2012 Rise Set
Actual Time 7:29 AM CST 5:10 PM CST
Civil Twilight 7:00 AM CST 5:39 PM CST
Nautical Twilight 6:27 AM CST 6:12 PM CST
Astronomical Twilight 5:56 AM CST 6:43 PM CST
Moon 11:55 PM CST (12/5) 11:58 AM CST (12/5)
Length of Visible Light 10h 39m
Length of Day
9h 40m
Waning Gibbous, 59% of the Moon is Illuminated
Dec 5
Waning Gibbous
Dec 6
Last Quarter
Dec 13
New
Dec 19
First Quarter
Dec 28
Full

Hourly Weather History & Observations

Time (CST) Temp. Windchill Dew Point Humidity Pressure Visibility Wind Dir Wind Speed Gust Speed Precip Events Conditions
12:55 AM 43.0 °F 41.3 °F 20.1 °F 40% 30.33 in 10.0 mi SE 3.5 mph - N/A   Clear
1:55 AM 41.4 °F 37.6 °F 21.0 °F 44% 30.32 in 10.0 mi SE 5.8 mph - N/A   Clear
2:55 AM 40.5 °F 37.3 °F 21.9 °F 48% 30.32 in 10.0 mi SSE 4.6 mph - N/A   Clear
3:55 AM 39.4 °F 37.2 °F 22.3 °F 50% 30.32 in 10.0 mi South 3.5 mph - N/A   Clear
4:55 AM 38.5 °F - 23.4 °F 55% 30.31 in 10.0 mi Calm Calm - N/A   Clear
5:55 AM 38.8 °F 36.5 °F 22.6 °F 52% 30.31 in 10.0 mi SE 3.5 mph - N/A   Clear
6:55 AM 38.7 °F 36.3 °F 22.5 °F 52% 30.32 in 10.0 mi SE 3.5 mph - N/A   Clear
8:55 AM 42.6 °F 37.8 °F 27.5 °F 55% 30.30 in 10.0 mi SSE 8.1 mph - N/A   Clear
9:55 AM 48.4 °F - 28.9 °F 47% 30.30 in 6.0 mi South 11.5 mph - N/A   Haze
10:55 AM 52.3 °F - 29.3 °F 41% 30.30 in 10.0 mi South 12.7 mph - N/A   Clear
11:55 AM 56.5 °F - 26.8 °F 32% 30.25 in 10.0 mi SSE 15.0 mph - N/A   Clear
12:55 PM 58.8 °F - 23.7 °F 26% 30.20 in 9.0 mi SSE 15.0 mph - N/A   Clear
1:55 PM 59.0 °F - 18.5 °F 21% 30.16 in 10.0 mi SSE 18.4 mph - N/A   Clear
2:55 PM 60.1 °F - 14.2 °F 17% 30.12 in 10.0 mi SE 16.1 mph - N/A   Clear
3:55 PM 58.6 °F - 15.4 °F 18% 30.09 in 10.0 mi SSE 13.8 mph - N/A   Clear
4:55 PM 55.9 °F - 17.8 °F 22% 30.09 in 10.0 mi SE 11.5 mph - N/A   Clear
5:55 PM 50.0 °F - 19.0 °F 29% 30.08 in 10.0 mi SE 10.4 mph - N/A   Clear
6:55 PM 50.5 °F - 18.9 °F 29% 30.05 in 10.0 mi SE 12.7 mph - N/A   Clear
7:55 PM 48.0 °F - 20.3 °F 33% 30.04 in 10.0 mi SE 11.5 mph - N/A   Clear
8:55 PM 46.4 °F 41.1 °F 21.7 °F 38% 30.04 in 10.0 mi South 11.5 mph - N/A   Clear
9:55 PM 46.6 °F - 24.3 °F 42% 30.01 in 10.0 mi SSE 13.8 mph - N/A   Clear
10:55 PM 45.3 °F 40.6 °F 26.1 °F 47% 30.01 in 10.0 mi SSE 9.2 mph - N/A   Clear
11:55 PM 44.8 °F 39.4 °F 27.5 °F 51% 29.98 in 10.0 mi SSE 10.4 mph - N/A   Clear